White Plains, CT

10:44 PM EDT on May 24, 2017 (GMT -0400)
Westchester County

Weather History for KHPN - February, 2012

Change the Weather History Date:

Thursday, February 2, 2012

  Actual Average Record
Temperature  
Mean Temperature 38 °F -  
Max Temperature 44 °F 36 °F 55 °F (1983)
Min Temperature 33 °F 22 °F 4 °F (1993)
Degree Days  
Heating Degree Days 26    
Moisture  
Dew Point 28 °F    
Average Humidity 65    
Maximum Humidity 82    
Minimum Humidity 53    
Precipitation  
Precipitation 0.00 in - - ()
Sea Level Pressure  
Sea Level Pressure 30.06 in    
Wind  
Wind Speed 8 mph (NNW)    
Max Wind Speed 16 mph    
Max Gust Speed 25 mph    
Visibility 10 miles    
Events      
Averages and records for this station are not official NWS values.
T = Trace of Precipitation, MM = Missing Value Source: NWS Daily Summary

Daily Weather History Graph

Daily Weather History Graph

Search for Another Location

Airport or City:

Trip Planner

Search our weather history database for the weather conditions in past years. The results will help you decide how hot, cold, wet, or windy it might be!

Date:

Astronomy

Feb. 02, 2012 Rise Set
Actual Time 7:05 AM EST 5:12 PM EST
Civil Twilight 6:36 AM EST 5:41 PM EST
Nautical Twilight 6:03 AM EST 6:14 PM EST
Astronomical Twilight 5:30 AM EST 6:46 PM EST
Moon 12:20 PM EST (2/2) 2:45 AM EST (2/2)
Length of Visible Light 11h 05m
Length of Day
10h 07m
Waxing Gibbous, 73% of the Moon is Illuminated
Feb 2
Waxing Gibbous
Feb 7
Full
Feb 14
Last Quarter
Feb 21
New
Feb 29
First Quarter

Hourly Weather History & Observations

Time (EST) Temp. Windchill Dew Point Humidity Pressure Visibility Wind Dir Wind Speed Gust Speed Precip Events Conditions
12:56 AM 44.1 °F 38.6 °F 33.1 °F 65% 29.99 in 10.0 mi NW 10.4 mph - N/A   Clear
1:56 AM 42.1 °F 37.1 °F 32.0 °F 67% 30.00 in 10.0 mi NW 8.1 mph - N/A   Clear
2:56 AM 37.9 °F - 30.9 °F 76% 30.00 in 10.0 mi Calm Calm - N/A   Clear
3:56 AM 37.9 °F 35.5 °F 30.9 °F 76% 30.00 in 10.0 mi NW 3.5 mph - N/A   Clear
4:56 AM 37.9 °F 34.4 °F 30.0 °F 73% 29.99 in 10.0 mi NNE 4.6 mph - N/A   Clear
5:56 AM 34.0 °F - 28.0 °F 79% 30.01 in 10.0 mi Calm Calm - N/A   Clear
6:56 AM 33.1 °F 30.0 °F 28.0 °F 82% 30.03 in 10.0 mi NNW 3.5 mph - N/A   Mostly Cloudy
7:56 AM 35.1 °F - 28.9 °F 78% 30.05 in 10.0 mi Calm Calm - N/A   Mostly Cloudy
8:56 AM 39.0 °F 36.8 °F 30.0 °F 70% 30.05 in 10.0 mi NNW 3.5 mph - N/A   Mostly Cloudy
9:56 AM 39.0 °F 34.0 °F 28.9 °F 67% 30.05 in 10.0 mi NNE 6.9 mph - N/A   Mostly Cloudy
10:56 AM 39.9 °F 36.7 °F 28.9 °F 65% 30.05 in 10.0 mi Variable 4.6 mph - N/A   Clear
11:56 AM 41.0 °F 35.2 °F 28.0 °F 60% 30.03 in 10.0 mi NNW 9.2 mph - N/A   Mostly Cloudy
12:56 PM 43.0 °F 36.4 °F 27.0 °F 53% 30.01 in 10.0 mi North 12.7 mph - N/A   Mostly Cloudy
1:56 PM 43.0 °F 36.8 °F 28.0 °F 56% 30.00 in 10.0 mi NNW 11.5 mph - N/A   Overcast
2:56 PM 43.0 °F 37.7 °F 28.0 °F 56% 30.01 in 10.0 mi NW 9.2 mph - N/A   Overcast
3:56 PM 42.1 °F 35.2 °F 27.0 °F 55% 30.03 in 10.0 mi NNW 12.7 mph - N/A   Overcast
4:56 PM 41.0 °F 34.7 °F 27.0 °F 57% 30.05 in 10.0 mi NW 10.4 mph - N/A   Overcast
5:56 PM 39.9 °F 33.4 °F 27.0 °F 60% 30.08 in 10.0 mi NNW 10.4 mph - N/A   Overcast
6:56 PM 39.0 °F 32.3 °F 27.0 °F 62% 30.11 in 10.0 mi NNW 10.4 mph - N/A   Overcast
7:56 PM 37.9 °F 29.6 °F 26.1 °F 62% 30.14 in 10.0 mi NNW 13.8 mph - N/A   Overcast
8:56 PM 37.0 °F 28.5 °F 25.0 °F 62% 30.17 in 10.0 mi North 13.8 mph - N/A   Overcast
9:56 PM 36.0 °F 27.1 °F 25.0 °F 64% 30.19 in 10.0 mi NNW 13.8 mph 18.4 mph N/A   Overcast
10:56 PM 35.1 °F 25.5 °F 21.9 °F 59% 30.22 in 10.0 mi NW 15.0 mph 23.0 mph N/A   Overcast
11:56 PM 34.0 °F 23.8 °F 21.0 °F 59% 30.23 in 10.0 mi NNW 16.1 mph 25.3 mph N/A   Overcast